Weather History for Blue Canyon, CA

Change the Weather History Date:

Thursday, September 25, 2014

  Actual Average Record
Temperature  
Mean Temperature 50 °F -  
Max Temperature 55 °F 68 °F 87 °F (2003)
Min Temperature 44 °F 50 °F 30 °F (1948)
Degree Days  
Heating Degree Days 16    
Moisture  
Dew Point 44 °F    
Average Humidity 87    
Maximum Humidity 93    
Minimum Humidity 69    
Precipitation  
Precipitation 0.99 in - - ()
Sea Level Pressure  
Sea Level Pressure 30.03 in    
Wind  
Wind Speed 6 mph (SSW)    
Max Wind Speed 13 mph    
Max Gust Speed 18 mph    
Visibility 4 miles    
Events Fog , Rain    
Averages and records for this station are not official NWS values.
T = Trace of Precipitation, MM = Missing Value Source: NWS Daily Summary

Daily Weather History Graph

Daily Weather History Graph

Search for Another Location

Airport:

Trip Planner

Search our weather history database for the weather conditions in past years. The results will help you decide how hot, cold, wet, or windy it might be!

Date:

Astronomy

Sep. 25, 2014 Rise Set
Actual Time 6:53 AM PDT 6:54 PM PDT
Civil Twilight 6:26 AM PDT 7:21 PM PDT
Nautical Twilight 5:55 AM PDT 7:52 PM PDT
Astronomical Twilight 5:23 AM PDT 8:24 PM PDT
Moon 8:15 AM PDT (9/25) 7:42 PM PDT (9/25)
Length of Visible Light 12h 54m
Length of Day
12h 01m
New Moon, 2% of the Moon is Illuminated
Sep 25
New Moon
Oct 1
First Quarter
Oct 8
Full
Oct 15
Last Quarter
Oct 23
New

Hourly Weather History & Observations

Time (PDT) Temp. Windchill Dew Point Humidity Pressure Visibility Wind Dir Wind Speed Gust Speed Precip Events Conditions
12:52 AM 54.0 °F - 46.9 °F 77% 29.84 in 4.0 mi SE 5.8 mph - N/A   Haze
1:52 AM 55.9 °F - 46.0 °F 69% 29.83 in 8.0 mi SSE 9.2 mph - N/A   Clear
2:52 AM 55.9 °F - 46.0 °F 69% 29.82 in 10.0 mi South 9.2 mph - N/A   Clear
3:52 AM 52.0 °F - 48.0 °F 86% 29.84 in 4.0 mi South 4.6 mph - N/A   Overcast
4:00 AM 52.0 °F - 48.0 °F 86% 30.05 in 2.5 mi SW 5.8 mph - N/A   Overcast
4:02 AM 51.1 °F - 48.0 °F 89% 30.05 in 1.0 mi West 5.8 mph - N/A   Overcast
4:05 AM 50.0 °F - 48.0 °F 93% 30.06 in 0.5 mi West 4.6 mph - N/A Fog Fog
4:13 AM 50.0 °F - 48.0 °F 93% 30.06 in 0.2 mi WSW 6.9 mph - N/A Fog Fog
4:52 AM 51.1 °F - 48.9 °F 92% 29.85 in 0.2 mi ESE 3.5 mph - N/A Fog Fog
5:04 AM 51.1 °F - 48.9 °F 92% 30.04 in 0.2 mi Calm Calm - N/A Fog Fog
5:15 AM 51.1 °F - 48.9 °F 92% 30.04 in 0.2 mi Calm Calm - N/A Fog Fog
5:52 AM 51.1 °F - 48.9 °F 92% 29.86 in 0.2 mi South 3.5 mph - N/A Fog Fog
6:31 AM 51.1 °F - 48.9 °F 92% 30.03 in 0.2 mi SSE 5.8 mph - N/A Fog Fog
6:45 AM 51.1 °F - 48.9 °F 92% 30.04 in 0.5 mi South 5.8 mph - 0.00 in Fog , Rain Light Rain
6:52 AM 51.1 °F - 48.9 °F 92% 29.87 in 0.5 mi South 11.5 mph - 0.00 in Fog , Rain Light Rain
7:04 AM 51.1 °F - 48.9 °F 92% 30.05 in 0.2 mi South 5.8 mph - 0.01 in Fog , Rain Light Rain
7:24 AM 50.0 °F - 48.0 °F 93% 30.04 in 0.2 mi South 5.8 mph - 0.01 in Fog Fog
7:52 AM 51.1 °F - 48.9 °F 92% 29.90 in 0.2 mi North - - 0.01 in Fog , Rain Light Rain
8:01 AM 50.0 °F - 48.0 °F 93% 30.06 in 0.2 mi SW 12.7 mph 18.4 mph 0.03 in Fog , Rain Light Rain
8:52 AM 46.0 °F 41.9 °F 44.1 °F 93% 29.96 in 0.2 mi West 8.1 mph - 0.09 in Fog , Rain Light Rain
9:29 AM 45.0 °F 43.5 °F 43.0 °F 93% 30.10 in 0.2 mi West 3.5 mph - 0.02 in Fog , Rain Light Rain
9:52 AM 44.1 °F 40.1 °F 42.1 °F 93% 30.00 in 0.2 mi Variable 6.9 mph - 0.02 in Fog Fog
9:57 AM 44.1 °F 40.8 °F 42.1 °F 93% 30.10 in 1.8 mi West 5.8 mph - N/A   Overcast
10:04 AM 44.1 °F 40.8 °F 42.1 °F 93% 30.10 in 0.8 mi WNW 5.8 mph - 0.00 in Rain Light Rain
10:16 AM 45.0 °F 41.8 °F 43.0 °F 93% 30.09 in 0.2 mi NNW 5.8 mph - 0.01 in Fog , Rain Light Rain
10:38 AM 45.0 °F 41.2 °F 43.0 °F 93% 30.11 in 0.5 mi NW 6.9 mph - 0.10 in Fog , Rain Rain
10:49 AM 44.6 °F 39.2 °F 42.8 °F 93% 30.12 in 0.2 mi NW 10.4 mph - 0.15 in Fog , Rain Heavy Rain
10:52 AM 44.1 °F 39.5 °F 42.1 °F 93% 30.01 in 0.2 mi North 8.1 mph - 0.18 in Fog , Rain Heavy Rain
10:58 AM 44.1 °F 40.1 °F 42.1 °F 93% 30.12 in 0.8 mi NW 6.9 mph - 0.04 in Rain Heavy Rain
11:02 AM 44.1 °F 40.1 °F 42.1 °F 93% 30.11 in 1.5 mi NW 6.9 mph - 0.06 in Rain Heavy Rain
11:06 AM 44.1 °F 40.1 °F 42.1 °F 93% 30.11 in 2.0 mi NW 6.9 mph - 0.08 in Rain Heavy Rain
11:13 AM 44.1 °F 41.5 °F 42.1 °F 93% 30.12 in 2.5 mi North 4.6 mph - 0.11 in Rain Rain
11:20 AM 44.1 °F - 42.1 °F 93% 30.12 in 2.0 mi Calm Calm - 0.14 in Rain Rain
11:43 AM 45.0 °F 42.6 °F 43.0 °F 93% 30.11 in 1.5 mi South 4.6 mph - 0.27 in Rain Heavy Rain
11:50 AM 44.6 °F 42.2 °F 42.8 °F 93% 30.10 in 1.8 mi East 4.6 mph - 0.30 in Rain Rain
11:52 AM 45.0 °F 43.5 °F 43.0 °F 93% 29.99 in 1.8 mi Variable 3.5 mph - 0.31 in Rain Rain
12:01 PM 45.0 °F 43.5 °F 43.0 °F 93% 30.11 in 3.0 mi Variable 3.5 mph - 0.02 in Rain Rain
12:36 PM 46.9 °F - 43.0 °F 86% 30.11 in 2.5 mi Variable 5.8 mph 18.4 mph 0.14 in Rain Rain
12:43 PM 46.9 °F - 43.0 °F 86% 30.12 in 4.0 mi Variable 6.9 mph 18.4 mph 0.15 in Rain Rain
12:52 PM 46.9 °F - 43.0 °F 86% 29.98 in 4.0 mi Variable 3.5 mph - 0.19 in Rain Rain
1:14 PM 46.9 °F - 44.1 °F 90% 30.11 in 1.8 mi Variable 3.5 mph - 0.08 in Rain Heavy Rain
1:24 PM 46.9 °F - 45.0 °F 93% 30.10 in 2.0 mi SSE 8.1 mph - 0.13 in Rain Rain
1:38 PM 46.9 °F - 44.1 °F 90% 30.11 in 3.0 mi SSE 8.1 mph - 0.15 in Rain Light Rain
1:52 PM 48.0 °F - 44.1 °F 86% 29.97 in 3.0 mi SSE 8.1 mph - 0.19 in Rain Rain
2:05 PM 46.9 °F - 44.1 °F 90% 30.10 in 10.0 mi SSE 9.2 mph 16.1 mph 0.00 in   Overcast
2:13 PM 46.9 °F - 44.1 °F 90% 30.10 in 10.0 mi Variable 5.8 mph - 0.00 in   Overcast
2:36 PM 48.9 °F - 45.0 °F 86% 30.09 in 10.0 mi Variable 5.8 mph - 0.00 in   Overcast
2:47 PM 48.2 °F - 44.6 °F 87% 30.10 in 10.0 mi SSE 5.8 mph - 0.00 in   Overcast
2:52 PM 48.9 °F - 45.0 °F 86% 29.96 in 10.0 mi SSE 6.9 mph - 0.00 in   Overcast
3:08 PM 48.9 °F - 44.1 °F 83% 30.09 in 10.0 mi Variable 4.6 mph - N/A   Overcast
3:52 PM 50.0 °F - 43.0 °F 77% 29.97 in 10.0 mi Variable 3.5 mph - N/A   Mostly Cloudy
4:01 PM 48.9 °F - 43.0 °F 80% 30.09 in 10.0 mi Variable 3.5 mph - N/A   Mostly Cloudy
4:09 PM 50.0 °F - 42.1 °F 74% 30.09 in 10.0 mi Variable 5.8 mph - N/A   Mostly Cloudy
4:39 PM 50.0 °F - 41.0 °F 71% 30.09 in 10.0 mi Calm Calm - N/A   Overcast
4:52 PM 48.9 °F - 42.1 °F 77% 29.97 in 10.0 mi Calm Calm - N/A   Mostly Cloudy
5:11 PM 48.9 °F - 41.0 °F 74% 30.08 in 10.0 mi Calm Calm - N/A   Partly Cloudy
5:52 PM 50.0 °F - 42.1 °F 74% 29.96 in 10.0 mi Calm Calm - N/A   Partly Cloudy
6:12 PM 50.0 °F - 42.1 °F 74% 30.09 in 10.0 mi South 4.6 mph - N/A   Mostly Cloudy
6:30 PM 48.0 °F - 41.0 °F 77% 30.09 in 10.0 mi Calm Calm - N/A   Scattered Clouds
6:52 PM 46.9 °F - 41.0 °F 80% 29.98 in 10.0 mi Calm Calm - N/A   Clear
7:52 PM 45.0 °F - 39.9 °F 82% 29.99 in 10.0 mi Calm Calm - N/A   Clear
8:52 PM 46.0 °F 44.8 °F 39.9 °F 79% 30.01 in 10.0 mi SE 3.5 mph - N/A   Clear
9:52 PM 46.0 °F 44.8 °F 39.9 °F 79% 30.02 in 10.0 mi NNW 3.5 mph - N/A   Clear
10:52 PM 45.0 °F - 39.9 °F 82% 30.02 in 10.0 mi Calm Calm - N/A   Clear
11:52 PM 44.1 °F - 37.9 °F 79% 30.02 in 10.0 mi Calm Calm - N/A   Clear